Location: Unspecified
(42.3650°N, 71.1030°W)
Time: 16:31:52
(UTC+00:00)

S-56A Canister/Altair - Pass Details

Date: 25 June 2024
Orbit: 638 x 2487 km, 38.9° (Epoch: 20 July)

Event Time Altitude Azimuth Distance (km) Brightness Sun altitude
Rises 08:19:50 0° 281° (W) 5,693 11.6 -8.0°
Reaches altitude 10° 08:24:50 10° 266° (W) 4,907 11.2 -7.3°
Maximum altitude 08:33:48 20° 227° (SW) 4,331 10.7 -6.1°
Drops below altitude 10° 08:43:08 10° 188° (S) 5,091 11.3 -4.7°
Sets 08:48:34 0° 173° (S) 5,963 11.8 -3.9°
